Hourly Weather Kizray

Today, 30 July, Friday

Time Temperature Precipitation Wind Pressure Humidity
00:00 +18°C° 0 mm 2 mps 734 mmHg 38%
01:00 +18°C° 0 mm 2 mps 734 mmHg 38%
02:00 +18°C° 0 mm 2 mps 734 mmHg 43%
03:00 +17°C° 0 mm 2 mps 734 mmHg 49%
04:00 +17°C° 0 mm 2 mps 734 mmHg 54%
05:00 +18°C° 0 mm 3 mps 733 mmHg 50%
06:00 +20°C° 0 mm 4 mps 733 mmHg 46%
07:00 +21°C° 0 mm 5 mps 733 mmHg 42%
08:00 +22°C° 0 mm 6 mps 733 mmHg 37%
09:00 +24°C° 0 mm 6 mps 733 mmHg 33%
10:00 +26°C° 0 mm 7 mps 733 mmHg 29%
11:00 +29°C° 0 mm 7 mps 732 mmHg 29%
12:00 +32°C° 0 mm 7 mps 732 mmHg 29%
13:00 +34°C° 0 mm 7 mps 731 mmHg 29%
14:00 +33°C° 0 mm 7 mps 731 mmHg 29%
15:00 +33°C° 0 mm 7 mps 731 mmHg 30%
16:00 +33°C° 0 mm 7 mps 731 mmHg 31%
17:00 +32°C° 0 mm 6 mps 731 mmHg 35%
18:00 +30°C° 0 mm 5 mps 731 mmHg 38%
19:00 +29°C° 0 mm 4 mps 731 mmHg 42%
20:00 +27°C° 0 mm 3 mps 732 mmHg 50%
21:00 +24°C° 0 mm 2 mps 732 mmHg 58%
22:00 +22°C° 0 mm 1 mps 732 mmHg 66%
23:00 +21°C° 0 mm 1 mps 732 mmHg 69%

Tomorrow, 31 July, Saturday

Time Temperature Precipitation Wind Pressure Humidity
00:00 +21°C° 0 mm 1 mps 732 mmHg 73%
01:00 +20°C° 0 mm 1 mps 733 mmHg 76%
02:00 +20°C° 0 mm 1 mps 732 mmHg 77%
03:00 +19°C° 0 mm 1 mps 732 mmHg 79%
04:00 +19°C° 0 mm 1 mps 732 mmHg 80%
05:00 +21°C° 0 mm 1 mps 733 mmHg 72%
06:00 +21°C° 0 mm 2 mps 733 mmHg 65%
07:00 +24°C° 0 mm 2 mps 733 mmHg 58%
08:00 +26°C° 0.2 mm 2 mps 733 mmHg 53%
09:00 +28°C° 0.2 mm 3 mps 733 mmHg 48%
10:00 +30°C° 0.2 mm 3 mps 734 mmHg 43%
11:00 +32°C° 0 mm 4 mps 733 mmHg 37%
12:00 +34°C° 0 mm 5 mps 733 mmHg 30%
13:00 +36°C° 0 mm 6 mps 733 mmHg 23%
14:00 +35°C° 0 mm 5 mps 732 mmHg 24%
15:00 +35°C° 0 mm 5 mps 732 mmHg 25%
16:00 +34°C° 0 mm 4 mps 732 mmHg 25%
17:00 +34°C° 0 mm 5 mps 732 mmHg 25%
18:00 +33°C° 0 mm 6 mps 732 mmHg 24%
19:00 +33°C° 0 mm 7 mps 732 mmHg 24%
20:00 +30°C° 0 mm 5 mps 733 mmHg 34%
21:00 +27°C° 0 mm 3 mps 733 mmHg 44%
22:00 +25°C° 0 mm 1 mps 733 mmHg 54%
23:00 +24°C° 1.1 mm 1 mps 733 mmHg 63%

Day after tomorrow, 1 August, Sunday

Time Temperature Precipitation Wind Pressure Humidity
00:00 +22°C° 1.1 mm 1 mps 733 mmHg 73%
01:00 +20°C° 1.1 mm 2 mps 734 mmHg 82%
02:00 +21°C° 0.1 mm 1 mps 734 mmHg 84%
03:00 +21°C° 0.1 mm 1 mps 733 mmHg 85%
04:00 +21°C° 0.1 mm 1 mps 733 mmHg 86%
05:00 +21°C° 0.1 mm 1 mps 733 mmHg 85%
06:00 +21°C° 0.1 mm 2 mps 734 mmHg 84%
07:00 +21°C° 0.1 mm 2 mps 734 mmHg 82%
08:00 +24°C° 0 mm 2 mps 734 mmHg 72%
09:00 +26°C° 0 mm 3 mps 735 mmHg 61%
10:00 +29°C° 0 mm 3 mps 735 mmHg 51%
11:00 +30°C° 0 mm 4 mps 735 mmHg 44%
12:00 +32°C° 0 mm 5 mps 735 mmHg 36%
13:00 +33°C° 0 mm 6 mps 734 mmHg 29%
14:00 +33°C° 0 mm 6 mps 735 mmHg 28%
15:00 +33°C° 0 mm 6 mps 735 mmHg 26%
16:00 +33°C° 0 mm 6 mps 735 mmHg 25%
17:00 +32°C° 0 mm 5 mps 735 mmHg 28%
18:00 +30°C° 0 mm 4 mps 735 mmHg 30%
19:00 +29°C° 0 mm 3 mps 735 mmHg 33%
20:00 +27°C° 0 mm 2 mps 735 mmHg 37%
21:00 +25°C° 0 mm 2 mps 735 mmHg 41%
22:00 +23°C° 0 mm 1 mps 735 mmHg 46%
23:00 +22°C° 0 mm 1 mps 735 mmHg 48%

2 August, Monday

Time Temperature Precipitation Wind Pressure Humidity
00:00 +22°C° 0 mm 1 mps 735 mmHg 50%
01:00 +21°C° 0 mm 1 mps 736 mmHg 52%
02:00 +20°C° 0 mm 1 mps 736 mmHg 55%
03:00 +19°C° 0 mm 1 mps 736 mmHg 57%
04:00 +17°C° 0 mm 0 mps 736 mmHg 60%
05:00 +18°C° 0 mm 0 mps 736 mmHg 56%
06:00 +20°C° 0 mm 0 mps 737 mmHg 52%
07:00 +22°C° 0 mm 0 mps 737 mmHg 48%
08:00 +26°C° 0 mm 1 mps 737 mmHg 43%
09:00 +27°C° 0 mm 2 mps 737 mmHg 39%
10:00 +29°C° 0 mm 3 mps 737 mmHg 35%
11:00 +31°C° 0 mm 3 mps 737 mmHg 32%
12:00 +33°C° 0 mm 3 mps 737 mmHg 29%
13:00 +34°C° 0 mm 3 mps 737 mmHg 26%
14:00 +34°C° 0 mm 3 mps 737 mmHg 26%
15:00 +34°C° 0 mm 3 mps 737 mmHg 26%
16:00 +35°C° 0 mm 3 mps 737 mmHg 26%
17:00 +33°C° 0 mm 3 mps 737 mmHg 30%
18:00 +31°C° 0 mm 2 mps 736 mmHg 33%
19:00 +30°C° 0 mm 2 mps 736 mmHg 37%
20:00 +28°C° 0 mm 2 mps 736 mmHg 42%
21:00 +26°C° 0 mm 2 mps 737 mmHg 47%
22:00 +24°C° 0 mm 2 mps 737 mmHg 52%
23:00 +23°C° 0 mm 2 mps 737 mmHg 54%

3 August, Tuesday

Time Temperature Precipitation Wind Pressure Humidity
00:00 +23°C° 0 mm 1 mps 736 mmHg 56%
01:00 +22°C° 0 mm 1 mps 736 mmHg 58%
02:00 +21°C° 0 mm 1 mps 736 mmHg 59%
03:00 +21°C° 0 mm 1 mps 737 mmHg 60%
04:00 +21°C° 0 mm 1 mps 737 mmHg 62%
05:00 +21°C° 0 mm 2 mps 737 mmHg 56%
06:00 +24°C° 0 mm 2 mps 737 mmHg 50%
07:00 +26°C° 0 mm 2 mps 737 mmHg 45%
08:00 +28°C° 0 mm 2 mps 737 mmHg 39%
09:00 +31°C° 0 mm 3 mps 737 mmHg 32%
10:00 +35°C° 0 mm 3 mps 737 mmHg 26%
11:00 +36°C° 0 mm 3 mps 737 mmHg 24%
12:00 +37°C° 0 mm 3 mps 737 mmHg 21%
13:00 +38°C° 0 mm 3 mps 737 mmHg 19%
14:00 +38°C° 0 mm 2 mps 736 mmHg 18%
15:00 +38°C° 0 mm 2 mps 736 mmHg 18%
16:00 +38°C° 0 mm 2 mps 736 mmHg 18%
17:00 +36°C° 0 mm 2 mps 736 mmHg 22%
18:00 +35°C° 0 mm 3 mps 736 mmHg 26%
19:00 +33°C° 0 mm 3 mps 736 mmHg 30%
20:00 +30°C° 0 mm 2 mps 736 mmHg 34%
21:00 +28°C° 0 mm 2 mps 736 mmHg 38%
22:00 +26°C° 0 mm 1 mps 736 mmHg 42%
23:00 +25°C° 0 mm 1 mps 736 mmHg 44%

4 August, Wednesday

Time Temperature Precipitation Wind Pressure Humidity
00:00 +25°C° 0 mm 1 mps 736 mmHg 46%
01:00 +24°C° 0 mm 1 mps 736 mmHg 47%
02:00 +24°C° 0 mm 1 mps 736 mmHg 48%
03:00 +23°C° 0 mm 1 mps 736 mmHg 49%
04:00 +23°C° 0 mm 1 mps 736 mmHg 49%
05:00 +24°C° 0 mm 1 mps 736 mmHg 45%
06:00 +26°C° 0 mm 2 mps 737 mmHg 41%
07:00 +28°C° 0 mm 2 mps 737 mmHg 36%
08:00 +31°C° 0 mm 2 mps 737 mmHg 30%
09:00 +34°C° 0 mm 3 mps 737 mmHg 24%
10:00 +37°C° 0 mm 3 mps 737 mmHg 19%
11:00 +38°C° 0 mm 3 mps 736 mmHg 17%
12:00 +41°C° 0 mm 4 mps 736 mmHg 16%
13:00 +42°C° 0 mm 4 mps 736 mmHg 14%
14:00 +41°C° 0 mm 4 mps 735 mmHg 15%
15:00 +41°C° 0 mm 4 mps 735 mmHg 15%
16:00 +40°C° 0 mm 4 mps 735 mmHg 16%
17:00 +37°C° 0.1 mm 4 mps 735 mmHg 22%
18:00 +34°C° 0.1 mm 4 mps 735 mmHg 28%
19:00 +30°C° 0.1 mm 4 mps 735 mmHg 34%
20:00 +29°C° 0 mm 3 mps 735 mmHg 38%
21:00 +27°C° 0 mm 2 mps 735 mmHg 42%
22:00 +26°C° 0 mm 1 mps 735 mmHg 46%
23:00 +25°C° 0 mm 1 mps 734 mmHg 48%
Show more